| time (UTC) | temp C | wind direction | speed KPH | gust KPH | rain 1hr cm | rain 24hr cm | rain mn cm | humidity % | barometer mb |
| 20260510054546 | 11 | 38 | 0.0 | 0.0 | 0.00 | 1.68 | 0.00 | 95 | 1012.9 |
| 20260510053020 | 11 | 38 | 0.0 | 0.0 | 0.00 | 1.68 | 0.00 | 95 | 1013.0 |
| 20260510051529 | 11 | 38 | 0.0 | 0.0 | 0.00 | 1.68 | 0.00 | 95 | 1013.0 |
| 20260510050007 | 11 | 38 | 0.0 | 0.0 | 0.00 | 1.68 | 0.00 | 95 | 1013.1 |
| 20260510044509 | 11 | 38 | 0.0 | 0.0 | 0.00 | 1.68 | 0.00 | 95 | 1013.1 |
| 20260510043017 | 11 | 38 | 0.0 | 0.0 | 0.00 | 1.68 | 0.00 | 95 | 1012.9 |
| 20260510041505 | 11 | 37 | 0.0 | 0.0 | 0.00 | 1.68 | 0.00 | 95 | 1012.9 |
| 20260510040005 | 11 | 38 | 0.0 | 0.0 | 0.00 | 1.68 | 1.68 | 95 | 1012.8 |
| 20260510034502 | 11 | 38 | 0.0 | 0.0 | 0.00 | 1.68 | 1.68 | 95 | 1012.7 |
| 20260510033002 | 11 | 34 | 0.0 | 0.0 | 0.00 | 1.68 | 1.68 | 95 | 1012.7 |
| 20260510031502 | 11 | 34 | 0.0 | 0.0 | 0.00 | 1.68 | 1.68 | 95 | 1013.0 |
| 20260510030045 | 11 | 34 | 0.0 | 0.0 | 0.00 | 1.68 | 1.68 | 95 | 1013.0 |
| 20260510024603 | 11 | 71 | 0.0 | 0.0 | 0.00 | 1.68 | 1.68 | 95 | 1012.8 |
| 20260510023040 | 10 | 146 | 0.0 | 1.6 | 0.00 | 1.68 | 1.68 | 95 | 1012.8 |
| 20260510021541 | 10 | 150 | 0.0 | 0.0 | 0.00 | 1.68 | 1.68 | 95 | 1012.7 |
| 20260510020022 | 10 | 150 | 0.0 | 0.0 | 0.00 | 1.68 | 1.68 | 95 | 1012.8 |
| 20260510014521 | 11 | 150 | 0.0 | 0.0 | 0.00 | 1.68 | 1.68 | 94 | 1012.8 |
| 20260510013003 | 11 | 150 | 0.0 | 0.0 | 0.00 | 1.68 | 1.68 | 94 | 1012.7 |
| 20260510011505 | 11 | 150 | 0.0 | 0.0 | 0.00 | 1.68 | 1.68 | 94 | 1012.8 |
| 20260510010044 | 11 | 74 | 0.0 | 1.6 | 0.00 | 1.68 | 1.68 | 94 | 1012.7 |
| 20260510004548 | 11 | 347 | 0.0 | 1.6 | 0.00 | 1.68 | 1.68 | 94 | 1012.7 |
| 20260510003028 | 11 | 121 | 0.0 | 0.0 | 0.03 | 1.68 | 1.68 | 94 | 1012.5 |
| 20260510001528 | 11 | 131 | 0.0 | 1.6 | 0.05 | 1.68 | 1.68 | 94 | 1012.2 |
| 20260510000012 | 11 | 101 | 0.0 | 3.2 | 0.20 | 1.68 | 1.68 | 94 | 1012.1 |
| 20260509234509 | 11 | 148 | 0.0 | 3.2 | 0.53 | 1.68 | 1.68 | 94 | 1012.3 |
| 20260509233052 | 11 | 98 | 1.6 | 14.5 | 0.61 | 1.65 | 1.65 | 94 | 1012.5 |
| 20260509231557 | 11 | 124 | 0.0 | 4.8 | 0.86 | 1.63 | 1.63 | 94 | 1012.9 |
| 20260509230028 | 11 | 245 | 0.0 | 4.8 | 0.94 | 1.42 | 1.42 | 94 | 1013.2 |
| 20260509224528 | 12 | 283 | 0.0 | 6.4 | 0.71 | 1.12 | 1.12 | 94 | 1013.2 |
| 20260509223015 | 12 | 229 | 0.0 | 6.4 | 0.64 | 1.02 | 1.02 | 93 | 1013.1 |
| 20260509221509 | 12 | 40 | 0.0 | 4.8 | 0.36 | 0.71 | 0.71 | 93 | 1013.4 |
| 20260509220050 | 12 | 99 | 0.0 | 3.2 | 0.15 | 0.51 | 0.51 | 93 | 1013.4 |
| 20260509214549 | 12 | 63 | 0.0 | 4.8 | 0.03 | 0.38 | 0.38 | 93 | 1013.5 |
| 20260509213032 | 12 | 280 | 0.0 | 6.4 | 0.03 | 0.38 | 0.38 | 93 | 1013.4 |
| 20260509211533 | 12 | 96 | 0.0 | 9.7 | 0.05 | 0.38 | 0.38 | 92 | 1013.3 |
| 20260509210016 | 12 | 60 | 0.0 | 6.4 | 0.10 | 0.36 | 0.36 | 92 | 1013.0 |
| 20260509204516 | 12 | 91 | 0.0 | 3.2 | 0.15 | 0.36 | 0.36 | 92 | 1012.8 |
| 20260509203055 | 12 | 101 | 0.0 | 3.2 | 0.18 | 0.36 | 0.36 | 92 | 1012.8 |
| 20260509201554 | 13 | 341 | 0.0 | 9.7 | 0.20 | 0.33 | 0.33 | 91 | 1013.3 |
| 20260509200045 | 13 | 155 | 0.0 | 11.3 | 0.15 | 0.28 | 0.25 | 90 | 1013.3 |
| 20260509194535 | 13 | 134 | 1.6 | 12.9 | 0.15 | 0.23 | 0.20 | 89 | 1013.1 |
| 20260509193016 | 13 | 145 | 0.0 | 8.0 | 0.15 | 0.20 | 0.18 | 88 | 1013.1 |
| 20260509191518 | 14 | 161 | 0.0 | 6.4 | 0.10 | 0.15 | 0.13 | 87 | 1012.8 |
| 20260509190058 | 15 | 155 | 0.0 | 9.7 | 0.08 | 0.13 | 0.10 | 85 | 1013.0 |
| 20260509184558 | 16 | 317 | 0.0 | 9.7 | 0.03 | 0.08 | 0.05 | 80 | 1012.9 |
| 20260509183040 | 16 | 155 | 1.6 | 12.9 | 0.00 | 0.05 | 0.03 | 75 | 1012.8 |
| 20260509181539 | 17 | 10 | 0.0 | 4.8 | 0.00 | 0.05 | 0.03 | 72 | 1012.6 |
| 20260509180024 | 17 | 246 | 1.6 | 11.3 | 0.00 | 0.05 | 0.03 | 71 | 1012.6 |
| 20260509174519 | 17 | 239 | 0.0 | 4.8 | 0.00 | 0.05 | 0.03 | 73 | 1012.7 |
| 20260509173119 | 17 | 143 | 1.6 | 9.7 | 0.00 | 0.05 | 0.03 | 71 | 1012.9 |
| 20260509171602 | 17 | 321 | 1.6 | 6.4 | 0.00 | 0.05 | 0.03 | 74 | 1012.9 |
| 20260509170042 | 16 | 27 | 0.0 | 4.8 | 0.00 | 0.05 | 0.03 | 75 | 1013.3 |
| 20260509164534 | 16 | 206 | 0.0 | 9.7 | 0.00 | 0.05 | 0.03 | 76 | 1013.6 |
| 20260509163022 | 15 | 126 | 0.0 | 9.7 | 0.00 | 0.05 | 0.03 | 76 | 1013.8 |
| 20260509161514 | 15 | 140 | 0.0 | 8.0 | 0.00 | 0.05 | 0.03 | 75 | 1014.1 |
| 20260509160114 | 15 | 95 | 3.2 | 12.9 | 0.00 | 0.05 | 0.03 | 74 | 1014.1 |
| 20260509154556 | 15 | 238 | 1.6 | 9.7 | 0.00 | 0.05 | 0.03 | 74 | 1014.1 |
| 20260509153054 | 15 | 134 | 0.0 | 9.7 | 0.00 | 0.05 | 0.03 | 77 | 1014.2 |
| 20260509151540 | 15 | 336 | 0.0 | 4.8 | 0.00 | 0.05 | 0.03 | 76 | 1014.2 |
| 20260509150039 | 15 | 264 | 0.0 | 8.0 | 0.00 | 0.05 | 0.03 | 77 | 1014.4 |
| 20260509144512 | 15 | 69 | 1.6 | 6.4 | 0.00 | 0.05 | 0.03 | 77 | 1014.3 |
| 20260509143012 | 14 | 56 | 0.0 | 9.7 | 0.00 | 0.05 | 0.03 | 79 | 1014.5 |
| 20260509141552 | 13 | 126 | 0.0 | 4.8 | 0.00 | 0.05 | 0.03 | 82 | 1014.3 |
| 20260509140046 | 13 | 210 | 0.0 | 1.6 | 0.00 | 0.05 | 0.03 | 82 | 1014.0 |
| 20260509134531 | 12 | 140 | 0.0 | 6.4 | 0.00 | 0.05 | 0.03 | 84 | 1014.2 |
| 20260509133028 | 12 | 246 | 0.0 | 1.6 | 0.00 | 0.05 | 0.03 | 87 | 1014.5 |
| 20260509131529 | 11 | 346 | 0.0 | 1.6 | 0.00 | 0.05 | 0.03 | 87 | 1014.8 |
| 20260509130051 | 10 | 293 | 0.0 | 1.6 | 0.00 | 0.05 | 0.03 | 86 | 1015.1 |
| 20260509124529 | 10 | 274 | 0.0 | 4.8 | 0.00 | 0.05 | 0.03 | 88 | 1014.9 |
| 20260509123017 | 10 | 124 | 0.0 | 3.2 | 0.00 | 0.05 | 0.03 | 89 | 1015.1 |
| 20260509121513 | 9 | 122 | 0.0 | 1.6 | 0.00 | 0.05 | 0.03 | 91 | 1015.3 |
| 20260509120015 | 9 | 261 | 0.0 | 1.6 | 0.00 | 0.05 | 0.03 | 92 | 1015.2 |
| 20260509114624 | 8 | 294 | 0.0 | 1.6 | 0.00 | 0.05 | 0.03 | 93 | 1015.4 |
| 20260509113058 | 8 | 320 | 0.0 | 1.6 | 0.00 | 0.05 | 0.03 | 93 | 1015.3 |
| 20260509111531 | 8 | 58 | 0.0 | 0.0 | 0.00 | 0.05 | 0.03 | 93 | 1015.2 |
| 20260509110029 | 8 | 283 | 0.0 | 1.6 | 0.00 | 0.05 | 0.03 | 93 | 1015.0 |
| 20260509104510 | 7 | 325 | 0.0 | 1.6 | 0.00 | 0.05 | 0.03 | 93 | 1014.9 |
| 20260509103011 | 7 | 48 | 0.0 | 0.0 | 0.00 | 0.05 | 0.03 | 93 | 1014.7 |
| 20260509101600 | 7 | 47 | 0.0 | 0.0 | 0.00 | 0.05 | 0.03 | 93 | 1015.0 |
| 20260509100052 | 7 | 49 | 0.0 | 0.0 | 0.00 | 0.05 | 0.03 | 93 | 1014.8 |
| 20260509094541 | 7 | 49 | 0.0 | 0.0 | 0.00 | 0.05 | 0.03 | 93 | 1014.7 |
| 20260509093041 | 7 | 49 | 0.0 | 0.0 | 0.00 | 0.05 | 0.03 | 93 | 1014.7 |
| 20260509091544 | 7 | 49 | 0.0 | 0.0 | 0.03 | 0.05 | 0.03 | 92 | 1014.8 |
| 20260509090042 | 7 | 49 | 0.0 | 0.0 | 0.03 | 0.05 | 0.03 | 92 | 1014.9 |
| 20260509084539 | 7 | 49 | 0.0 | 0.0 | 0.03 | 0.05 | 0.03 | 91 | 1014.9 |
| 20260509083038 | 7 | 49 | 0.0 | 0.0 | 0.00 | 0.03 | 0.00 | 90 | 1014.7 |
| 20260509081540 | 7 | 49 | 0.0 | 0.0 | 0.00 | 0.03 | 0.00 | 90 | 1014.8 |
| 20260509080044 | 7 | 49 | 0.0 | 0.0 | 0.00 | 0.03 | 0.00 | 90 | 1014.9 |
| 20260509074540 | 7 | 49 | 0.0 | 0.0 | 0.00 | 0.03 | 0.00 | 91 | 1014.5 |
| 20260509073045 | 7 | 49 | 0.0 | 0.0 | 0.00 | 0.03 | 0.00 | 91 | 1014.4 |
| 20260509071538 | 7 | 49 | 0.0 | 0.0 | 0.00 | 0.03 | 0.00 | 91 | 1014.4 |
| 20260509070037 | 7 | 49 | 0.0 | 0.0 | 0.00 | 0.03 | 0.00 | 90 | 1014.4 |
| 20260509064546 | 7 | 49 | 0.0 | 0.0 | 0.00 | 0.03 | 0.00 | 90 | 1014.6 |
| 20260509063036 | 7 | 49 | 0.0 | 0.0 | 0.00 | 0.03 | 0.00 | 90 | 1014.9 |
| 20260509061513 | 7 | 49 | 0.0 | 0.0 | 0.00 | 0.03 | 0.00 | 90 | 1014.9 |
| 20260509060004 | 7 | 49 | 0.0 | 0.0 | 0.00 | 0.03 | 0.00 | 89 | 1015.0 |